Weather History for KBTR - October, 2010

Change the Weather History Date:

Saturday, October 16, 2010

  Actual Average Record
Temperature  
Mean Temperature 68 °F 69 °F  
Max Temperature 85 °F 81 °F 93 °F (1919)
Min Temperature 50 °F 58 °F 40 °F (1907)
Degree Days  
Heating Degree Days 0 1  
Month to date heating degree days 12 11  
Since 1 July heating degree days 12 13  
Cooling Degree Days 3 5  
Month to date cooling degree days 56 116  
Year to date cooling degree days 2860 2687  
Growing Degree Days 18 (Base 50)    
Moisture  
Dew Point 53 °F    
Average Humidity 64    
Maximum Humidity 100    
Minimum Humidity 28    
Precipitation  
Precipitation 0.00 in 0.17 in 2.36 in (1932)
Month to date precipitation 1.23 2.32  
Year to date precipitation 45.25 48.57  
Snow  
Snow 0.00 in - - ()
Month to date snowfall 0.0  
Since 1 July snowfall 0.0  
Since 1 September snowfall 0.0  
Snow Depth 0.00 in    
Sea Level Pressure  
Sea Level Pressure 30.12 in    
Wind  
Wind Speed 2 mph (West)    
Max Wind Speed 12 mph    
Max Gust Speed 24 mph    
Visibility 10 miles    
Events      
T = Trace of Precipitation, MM = Missing Value Source: NWS Daily Summary

Daily Weather History Graph

Daily Weather History Graph

Search for Another Location

Airport or City:

Trip Planner

Search our weather history database for the weather conditions in past years. The results will help you decide how hot, cold, wet, or windy it might be!

Date:

Astronomy

Oct. 16, 2010 Rise Set
Actual Time 7:07 AM CDT 6:32 PM CDT
Civil Twilight 6:43 AM CDT 6:56 PM CDT
Nautical Twilight 6:15 AM CDT 7:24 PM CDT
Astronomical Twilight 5:47 AM CDT 7:52 PM CDT
Moon 3:01 PM CDT (10/16) 1:26 AM CDT (10/16)
Length of Visible Light 12h 13m
Length of Day
11h 24m
Waxing Gibbous, 67% of the Moon is Illuminated
Oct 16
Waxing Gibbous
Oct 22
Full
Oct 30
Last Quarter
Nov 5
New
Nov 13
First Quarter

Hourly Weather History & Observations

Time (CDT) Temp. Heat Index Dew Point Humidity Pressure Visibility Wind Dir Wind Speed Gust Speed Precip Events Conditions
12:53 AM 55.0 °F - 54.0 °F 96% 30.09 in 10.0 mi Calm Calm - N/A   Unknown
1:53 AM 55.0 °F - 53.1 °F 93% 30.09 in 10.0 mi Calm Calm - N/A   Unknown
2:53 AM 57.9 °F - 53.1 °F 84% 30.10 in 10.0 mi West 5.8 mph - N/A   Unknown
3:53 AM 55.0 °F - 52.0 °F 89% 30.10 in 10.0 mi Calm Calm - N/A   Unknown
4:53 AM 54.0 °F - 53.1 °F 97% 30.11 in 10.0 mi Calm Calm - N/A   Unknown
5:53 AM 53.1 °F - 52.0 °F 96% 30.12 in 10.0 mi Calm Calm - N/A   Unknown
6:53 AM 51.1 °F - 51.1 °F 100% 30.13 in 10.0 mi Calm Calm - N/A   Unknown
7:53 AM 53.1 °F - 53.1 °F 100% 30.14 in 10.0 mi Calm Calm - N/A   Unknown
8:53 AM 59.0 °F - 55.0 °F 87% 30.17 in 10.0 mi Calm Calm - N/A   Clear
9:53 AM 66.0 °F - 55.9 °F 70% 30.17 in 10.0 mi Calm Calm - N/A   Clear
10:53 AM 73.0 °F - 55.0 °F 53% 30.17 in 10.0 mi WNW 3.5 mph - N/A   Unknown
11:53 AM 77.0 °F - 53.1 °F 43% 30.15 in 10.0 mi Calm Calm - N/A   Clear
12:53 PM 80.1 °F 79.9 °F 53.1 °F 39% 30.13 in 10.0 mi Variable 4.6 mph - N/A   Clear
1:53 PM 82.9 °F - 48.9 °F 31% 30.10 in 10.0 mi West 3.5 mph - N/A   Clear
2:53 PM 84.0 °F - 48.9 °F 29% 30.08 in 10.0 mi West 9.2 mph - N/A   Clear
3:53 PM 82.9 °F - 46.9 °F 28% 30.07 in 10.0 mi SW 9.2 mph - N/A   Clear
4:53 PM 82.0 °F - 46.9 °F 29% 30.07 in 10.0 mi West 6.9 mph - N/A   Clear
5:53 PM 78.1 °F - 48.9 °F 36% 30.08 in 10.0 mi WSW 5.8 mph - N/A   Clear
6:53 PM 73.0 °F - 48.9 °F 42% 30.10 in 10.0 mi WNW 4.6 mph - N/A   Clear
7:53 PM 66.0 °F - 55.9 °F 70% 30.11 in 10.0 mi Calm Calm - N/A   Unknown
8:53 PM 63.0 °F - 57.9 °F 84% 30.12 in 10.0 mi Calm Calm - N/A   Unknown
9:53 PM 61.0 °F - 55.9 °F 83% 30.13 in 10.0 mi Calm Calm - N/A   Unknown
10:53 PM 60.1 °F - 55.9 °F 86% 30.14 in 10.0 mi Calm Calm - N/A   Unknown
11:53 PM 62.1 °F - 57.0 °F 84% 30.13 in 10.0 mi Calm Calm - N/A   Unknown